EW6950 Weather Reports


time (UTC)temp
C
wind
direction
speed
KPH
gust
KPH
rain 1hr
cm
rain 24hr
cm
rain mn
cm
humidity
%
barometer
mb
20180922073216 10 196 3.2 9.7 0.00 0.43 0.00 84 1022.1
20180922072216 10 113 1.6 6.4 0.00 0.43 0.00 86 1022.1
20180922071216 9 182 1.6 4.8 0.00 0.43 0.00 86 1022.2
20180922070216 9 182 1.6 3.2 0.00 0.43 0.00 86 1022.2
20180922065216 8 181 1.6 4.8 0.00 0.43 0.00 87 1022.1
20180922064217 8 182 1.6 3.2 0.00 0.43 0.00 88 1022.2
20180922063216 8 182 1.6 4.8 0.00 0.43 0.00 88 1022.2
20180922062217 8 182 1.6 4.8 0.00 0.43 0.00 89 1022.2
20180922061216 7 182 1.6 3.2 0.00 0.43 0.00 89 1022.5
20180922060216 7 182 1.6 4.8 0.00 0.43 0.00 88 1022.2
20180922055214 7 182 1.6 3.2 0.00 0.43 0.00 88 1022.3
20180922054214 7 182 1.6 3.2 0.00 0.43 0.00 88 1021.8
20180922053214 7 182 1.6 3.2 0.00 0.43 0.00 88 1022.1
20180922052214 7 182 3.2 4.8 0.00 0.43 0.00 88 1022.0
20180922051214 7 184 3.2 8.0 0.00 0.43 0.00 88 1021.5
20180922050212 7 191 3.2 6.4 0.00 0.43 0.00 88 1021.5
20180922045212 7 205 1.6 4.8 0.00 0.43 0.00 88 1021.4
20180922044212 7 207 3.2 6.4 0.00 0.43 0.00 88 1021.4
20180922043210 7 193 1.6 4.8 0.00 0.43 0.00 88 1021.3
20180922042210 7 194 3.2 4.8 0.00 0.43 0.00 88 1021.2
20180922041211 7 189 1.6 4.8 0.00 0.43 0.00 88 1021.0
20180922040210 7 189 1.6 4.8 0.00 0.43 0.00 88 1021.1
20180922035210 7 189 1.6 4.8 0.00 0.43 0.00 88 1021.2
20180922034209 7 189 1.6 4.8 0.00 0.43 0.00 88 1021.3
20180922033209 7 189 3.2 6.4 0.00 0.43 0.00 88 1021.1
20180922032208 7 189 1.6 3.2 0.00 0.43 0.00 87 1021.1
20180922031208 7 189 1.6 4.8 0.00 0.43 0.00 87 1021.0
20180922030208 7 189 0.0 1.6 0.00 0.43 0.00 87 1021.0
20180922025208 7 189 1.6 4.8 0.00 0.43 0.00 86 1021.2
20180922024216 7 189 3.2 6.4 0.00 0.43 0.00 86 1021.3
20180922023208 7 185 1.6 4.8 0.00 0.43 0.00 86 1021.2
20180922022208 7 185 1.6 4.8 0.00 0.43 0.00 85 1020.9
20180922021206 7 185 1.6 4.8 0.00 0.43 0.00 85 1020.9
20180922020206 7 185 1.6 3.2 0.00 0.43 0.00 84 1021.0
20180922015206 7 185 1.6 3.2 0.00 0.43 0.00 84 1021.0
20180922014209 8 185 1.6 4.8 0.00 0.43 0.00 83 1020.8
20180922013206 8 185 1.6 3.2 0.00 0.43 0.00 83 1020.9
20180922012207 8 185 3.2 6.4 0.00 0.43 0.00 83 1020.8
20180922011206 8 191 1.6 6.4 0.00 0.43 0.00 83 1020.8
20180922010209 8 190 3.2 4.8 0.00 0.43 0.00 83 1020.7
20180922005206 8 207 3.2 6.4 0.00 0.43 0.00 83 1020.7
20180922004206 8 215 1.6 3.2 0.00 0.43 0.00 83 1020.8
20180922003206 8 217 1.6 4.8 0.00 0.43 0.00 82 1020.8
20180922002206 8 217 1.6 6.4 0.00 0.43 0.00 82 1020.7
20180922001206 8 217 1.6 6.4 0.00 0.43 0.00 82 1020.6
20180922000207 8 218 1.6 4.8 0.00 0.43 0.00 82 1020.4
20180921235204 8 218 1.6 8.0 0.00 0.43 0.00 81 1020.5
20180921234204 8 209 0.0 1.6 0.00 0.43 0.00 80 1020.4
20180921233205 8 209 0.0 4.8 0.00 0.43 0.00 79 1020.4
20180921232204 8 209 0.0 1.6 0.00 0.43 0.00 79 1020.3
20180921231205 8 209 0.0 3.2 0.00 0.43 0.00 78 1020.2
20180921230207 8 209 1.6 3.2 0.00 0.43 0.00 78 1020.2
20180921225205 8 209 3.2 6.4 0.00 0.43 0.00 77 1020.1
20180921224205 8 213 3.2 6.4 0.00 0.43 0.00 77 1020.0
20180921223206 9 215 3.2 6.4 0.00 0.43 0.00 76 1019.9
20180921222206 9 215 3.2 6.4 0.00 0.43 0.00 75 1019.8
20180921221209 9 217 3.2 6.4 0.00 0.43 0.00 74 1019.9
20180921220205 10 179 0.0 4.8 0.00 0.43 0.00 73 1019.7
20180921215205 10 209 3.2 4.8 0.00 0.43 0.43 73 1019.7
20180921214205 10 202 3.2 11.3 0.00 0.43 0.43 72 1019.7
20180921213205 10 227 3.2 8.0 0.00 0.43 0.43 71 1019.5
20180921212205 10 214 4.8 9.7 0.00 0.43 0.43 71 1019.6
20180921211208 11 252 4.8 11.3 0.00 0.43 0.43 71 1019.5
20180921210205 11 225 3.2 8.0 0.00 0.43 0.43 72 1019.2
20180921205205 10 256 3.2 12.9 0.00 0.43 0.43 73 1019.2
20180921204205 10 198 4.8 12.9 0.00 0.43 0.43 75 1018.9
20180921203205 10 256 3.2 12.9 0.00 0.43 0.43 78 1018.9
20180921202205 9 219 0.0 3.2 0.00 0.43 0.43 79 1018.5
20180921201208 9 219 1.6 1.6 0.00 0.43 0.43 78 1018.7
20180921200205 9 219 0.0 0.0 0.00 0.43 0.43 77 1018.5
20180921195205 9 219 0.0 3.2 0.00 0.43 0.43 76 1018.3
20180921194205 10 220 0.0 1.6 0.00 0.43 0.43 74 1018.2
20180921193205 10 219 0.0 1.6 0.00 0.43 0.43 73 1018.1
20180921192204 10 219 0.0 1.6 0.00 0.43 0.43 71 1018.0
20180921191205 10 219 1.6 1.6 0.00 0.43 0.43 70 1017.8
20180921190205 11 220 1.6 4.8 0.00 0.43 0.43 69 1017.6
20180921185205 11 220 1.6 4.8 0.00 0.43 0.43 68 1017.4
20180921184205 11 219 3.2 6.4 0.00 0.43 0.43 66 1017.2
20180921183205 11 204 3.2 9.7 0.00 0.43 0.43 65 1017.1
20180921182207 12 212 3.2 8.0 0.00 0.43 0.43 64 1016.9
20180921181206 12 216 4.8 11.3 0.00 0.43 0.43 63 1016.7
20180921180205 12 207 4.8 9.7 0.00 0.43 0.43 62 1016.4
20180921175205 13 230 4.8 12.9 0.00 0.43 0.43 60 1016.1
20180921174206 13 201 6.4 16.1 0.00 0.43 0.43 58 1015.9
20180921173208 13 211 8.0 19.3 0.00 0.43 0.43 56 1015.7
20180921172211 14 213 9.7 20.9 0.00 0.43 0.43 55 1015.6
20180921171204 14 256 8.0 19.3 0.00 0.43 0.43 54 1015.5
20180921170205 14 261 6.4 17.7 0.00 0.43 0.43 54 1015.1
20180921165205 14 248 8.0 20.9 0.00 0.43 0.43 53 1015.0
20180921164215 15 182 8.0 19.3 0.00 0.43 0.43 52 1014.8
20180921163205 15 239 11.3 27.4 0.00 0.43 0.43 50 1014.8
20180921162206 15 225 9.7 27.4 0.00 0.43 0.43 51 1014.5
20180921161205 15 236 11.3 29.0 0.00 0.43 0.43 51 1014.4
20180921160205 15 237 9.7 22.5 0.00 0.43 0.43 49 1014.3
20180921155204 16 232 9.7 27.4 0.03 0.43 0.43 49 1014.1
20180921154205 16 232 11.3 30.6 0.03 0.43 0.43 49 1013.9
20180921153207 16 214 11.3 27.4 0.03 0.43 0.43 50 1013.9
20180921152205 16 225 9.7 24.1 0.03 0.43 0.43 54 1013.7
20180921151205 16 232 11.3 25.7 0.03 0.43 0.43 55 1013.5
20180921150205 16 217 12.9 29.0 0.00 0.41 0.41 51 1013.4
20180921145204 17 355 11.3 29.0 0.00 0.41 0.41 50 1013.4
20180921144214 17 263 9.7 20.9 0.00 0.41 0.41 49 1013.3
20180921143205 17 321 9.7 20.9 0.00 0.41 0.41 56 1013.1
20180921142204 17 258 9.7 24.1 0.00 0.41 0.41 61 1013.0
20180921141205 16 230 11.3 25.7 0.00 0.41 0.41 61 1012.8
20180921140204 16 211 11.3 33.8 0.00 0.41 0.41 64 1012.8
20180921135210 16 270 8.0 19.3 0.00 0.41 0.41 71 1012.4
20180921134204 16 243 9.7 22.5 0.00 0.41 0.41 74 1012.4
20180921133205 15 214 9.7 24.1 0.00 0.41 0.41 79 1012.3
20180921132204 15 224 8.0 20.9 0.00 0.41 0.41 84 1012.3
20180921131210 15 236 8.0 22.5 0.00 0.41 0.41 89 1012.1
20180921130204 15 246 6.4 16.1 0.00 0.41 0.41 92 1011.8
20180921125207 13 252 9.7 24.1 0.00 0.41 0.41 92 1011.5
20180921124205 13 215 8.0 22.5 0.00 0.41 0.41 93 1011.6
20180921123208 13 243 8.0 25.7 0.00 0.41 0.41 93 1011.6
20180921122208 12 261 6.4 16.1 0.03 0.41 0.41 94 1011.4
20180921121205 12 229 6.4 14.5 0.05 0.41 0.41 94 1011.4
20180921120204 12 208 6.4 19.3 0.05 0.41 0.41 94 1011.2
20180921115205 12 196 6.4 12.9 0.10 0.41 0.41 93 1011.3
20180921114206 12 229 6.4 17.7 0.15 0.41 0.41 93 1011.4
20180921113205 11 188 6.4 12.9 0.23 0.41 0.41 93 1011.3
20180921112204 11 221 6.4 14.5 0.28 0.38 0.38 92 1011.4
20180921111204 11 246 9.7 33.8 0.30 0.36 0.36 92 1011.1
20180921110204 12 196 8.0 22.5 0.28 0.33 0.33 91 1011.0
20180921105205 12 261 9.7 25.7 0.23 0.28 0.28 90 1010.8
20180921104205 12 217 11.3 25.7 0.18 0.23 0.23 89 1010.5
20180921103205 13 250 14.5 27.4 0.10 0.15 0.15 88 1009.9
20180921102205 16 215 14.5 33.8 0.05 0.08 0.08 91 1009.4
20180921101204 16 198 14.5 33.8 0.05 0.05 0.05 90 1009.0
20180921100204 17 213 12.9 30.6 0.05 0.05 0.05 89 1008.9
20180921095205 17 217 11.3 22.5 0.05 0.05 0.05 88 1009.1
20180921094205 17 213 9.7 27.4 0.05 0.05 0.05 87 1009.1
20180921093205 17 126 11.3 22.5 0.05 0.05 0.05 87 1009.0
20180921092205 17 175 9.7 27.4 0.03 0.03 0.03 85 1009.0
20180921091205 17 157 12.9 30.6 0.00 0.00 0.00 83 1009.0
20180921090205 17 128 14.5 32.2 0.00 0.00 0.00 81 1009.0
20180921085205 18 167 14.5 37.0 0.00 0.00 0.00 77 1009.0
20180921084208 18 209 11.3 33.8 0.00 0.00 0.00 75 1008.9
20180921083205 18 201 11.3 27.4 0.00 0.00 0.00 76 1008.5
20180921082206 18 161 8.0 19.3 0.00 0.00 0.00 76 1008.5
20180921081206 18 41 9.7 27.4 0.00 0.00 0.00 74 1008.9
20180921080205 18 219 12.9 29.0 0.00 0.00 0.00 72 1008.9
20180921075206 18 223 9.7 29.0 0.00 0.00 0.00 70 1008.6